Tracking 19909 objects as of 22-Oct-2019
HD Live streaming from Space Station
objects crossing your sky now

NOAA 16 DEB

Track NOAA 16 DEB now!
10-day predictions


NORAD ID: 41232
Int'l Code: 2000-055EM
Perigee: 852.8 km
Apogee: 926.9 km
Inclination: 98.9 °
Period: 102.6 minutes
Semi major axis: 7260 km
RCS: Unknown
Launch date: September 21, 2000
Source: United States (US)
Launch site: AIR FORCE WESTERN TEST RANGE (AFWTR)

Note: This is SATELLITE DEBRIS
aabbcc
Your satellite tracking list
Your tracking list is empty




NASA's NSSDC Master Catalog

Two Line Element Set (TLE):
1 41232U 00055EM  19294.34676140 +.00000652 +00000-0 +44196-3 0  9998
2 41232 098.9425 356.1651 0051046 259.2771 100.2645 14.03202610197359
Source of the keplerian elements: AFSPC